Flag for Canada Weather past 2 weeks in Sidney, British Columbia, Canada

Now
59 °F

Mostly cloudy.


Feels Like: 58 °F
Forecast: 55 / 64 °F
Wind: 6 mph from West

Location: Victoria Int. Airportb. C.

Current Time: Jul 23, 2014 at 10:07:18 AM

Latest Report: Jul 23, 2014 at 9:00 AM


Visibility: 30 mi

Pressure: 29.96 "Hg

Humidity: 82%

Dew point: 54 °F

Location of SidneyLocation

Historic Weather in Sidney — Graph

°F

Sidney temperature yesterday

Maximum temperature yesterday: 63 °F (at 5:00 PM)
Minimum temperature yesterday: 52 °F (at 5:00 AM)
Average temperature yesterday: 57 °F

Past Weeks' High & Low Weather Summary

 TemperatureHumidityPressure
High84 °F (Jul 13, 3:00 PM)94% (Jul 9, 6:00 AM)30.13 "Hg (Jul 9, 6:00 AM)
Low52 °F (Jul 15, 5:00 AM)40% (Jul 13, 3:00 PM)29.90 "Hg (Jul 16, 9:00 PM)
Average63 °F72%30.00 "Hg
* Reported Jul 8 9:00 AM — Jul 23 9:00 AM, Sidney, Weather by CustomWeather, © 2014

Note: Actual official high and low records may vary slightly from our data, if they occured in-between our weather recording intervals... More about our weather records

Advertising

Sidney weather history for previous 24 hours

 ConditionsComfort  
Time TempWeatherWind HumidityBarometerVisibility
9:00 AM
Jul 23
59 °FMostly cloudy.6 mph82%29.96 "Hg30 mi
8:00 AM57 °FLight rain. Mostly cloudy.5 mph82%29.97 "Hg30 mi
7:51 AM57 °FLight rain. Partly sunny.5 mph82%29.97 "Hg30 mi
7:00 AM57 °FPartly sunny.7 mph88%29.97 "Hg30 mi
6:00 AM55 °FPassing clouds.6 mph88%29.97 "Hg30 mi
5:00 AM55 °FPartly cloudy.6 mph88%29.98 "Hg30 mi
4:00 AM54 °FPassing clouds.6 mph88%29.99 "Hg30 mi
3:00 AM52 °FPassing clouds.3 mph94%30.00 "Hg30 mi
2:00 AM54 °FPassing clouds.3 mph94%30.01 "Hg30 mi
1:00 AM54 °FPassing clouds.No wind88%30.02 "Hg30 mi
11:00 PM
Jul 22
57 °FPassing clouds.5 mph82%30.03 "Hg30 mi
10:00 PM57 °FPassing clouds.5 mph88%30.03 "Hg30 mi
9:00 PM59 °FPassing clouds.7 mph82%30.02 "Hg30 mi
8:00 PM61 °FScattered clouds.7 mph77%30.03 "Hg30 mi
7:00 PM63 °FScattered clouds.10 mph73%30.03 "Hg30 mi
6:00 PM63 °FScattered clouds.13 mph68%30.04 "Hg30 mi
5:00 PM63 °FScattered clouds.14 mph68%30.05 "Hg30 mi
Weather by CustomWeather, © 2014

See weather overviewHow to use our weather pages